Kezdőlap
METAR-TAF:

METAR-TAF

Repülőterek :

Saguache Municipal Airport

Saguache, Colorado, Amerikai Egyesült Államok

földrajzi szélesség: 38-05-50N, földrajzi hosszúság: 106-10-07W, magasság: 2385 m

Jelenlegi meteorológiai megfigyelések

A jelentés 41 perccel ezelõtt készült, 07:35 UTC
Nyugat-északnyugati szél 10 kt
Hőmérséklet 13°C
Páratartalom 41%
Légköri nyomás 1027 hPa
Látótávolság: 16.1 km
Derült ég

METAR: K04V 130735Z AUTO 30010KT 10SM CLR 13/00 A3033 RMK AO2

Idő: 02:16 (08:16 UTC)


TAF: hiányzik

Meteorológiai megfigyelések és előrejelzések több, mint 4000 repülőtéren (METAR és TAF jelentéseket).

A térképen piros és sárga pontok jelzik az elérhető meteorológiai állomásokat.

Mozgassa az egeret a pont fölött, hogy megjelenjen az állomás neve.

Azután kattintson az időjárási megfigyelések és előrejelzések megtekintéséhez.

A térkép megváltoztatása: kattintson a fekete keresztel jelölt zöld gombra ráközelítéshez, a vonallal jelölt zöld gombra távolításhoz, vagy a zöld nyilakra a szomszédos térképek eléréséhez.


METAR-TAF: